"Time","Temp","Dewpoint","Humidity","Pressure","Direction","Speed","Gust","Precip","PrecipRate"
"00:04:59","74","71","90.5","29.92","168","2.5","7","0.00","0.00"
"00:09:58","73.9","71.1","91","29.92","173","1.9","4","0.00","0.00"
"00:14:58","73.9","71.1","91","29.92","196","1.7","5","0.00","0.00"
"00:19:56","73.9","71.1","91","29.92","190","1.7","4","0.00","0.00"
"00:24:59","73.8","71","91","29.92","179","1","3.5","0.00","0.00"
"00:29:57","73.8","71","91","29.92","172","1.9","5","0.00","0.00"
"00:34:56","73.8","71","91","29.92","173","2.3","5","0.00","0.00"
"00:39:56","73.8","71.1","91.3","29.92","173","1.6","4.6","0.00","0.00"
"00:44:59","73.7","71.1","91.8","29.92","176","0.6","3.5","0.00","0.00"
"00:49:57","73.7","71.2","92","29.91","169","1.4","4","0.00","0.00"
"00:54:56","73.7","71.2","92","29.91","170","0.6","2.3","0.00","0.00"
"00:59:58","73.7","71.2","92","29.93","170","0.5","2.3","0.00","0.00"
"01:04:57","73.8","71.3","92","29.93","170","0.9","2.3","0.00","0.00"
"01:09:56","73.8","71.3","92","29.93","170","0.5","2.3","0.00","0.00"
"01:14:55","73.8","71.3","92","29.93","170","0.1","1.2","0.00","0.00"
"01:19:59","73.8","71.2","91.7","29.92","170","0.3","2.3","0.00","0.00"
"01:24:58","73.8","71.1","91.3","29.92","170","0","1","0.00","0.00"
"01:29:56","73.7","71.2","92","29.92","170","1.3","3.5","0.00","0.00"
"01:34:59","73.7","71.2","92","29.92","180","0.7","3.5","0.00","0.00"
"01:39:59","73.7","71.2","92","29.92","194","0","0","0.00","0.00"
"01:44:58","73.6","71.1","92","29.92","194","0","0","0.00","0.00"
"01:49:57","73.6","71.1","92","29.92","194","0","0","0.00","0.00"
"01:54:56","73.6","71.1","92","29.92","194","0","0","0.00","0.00"
"01:59:59","73.4","70.9","92","29.92","194","0","0","0.00","0.00"
"02:04:57","73.3","70.8","92","29.92","194","0","0","0.00","0.00"
"02:09:56","73.2","70.7","92","29.92","194","0","0","0.00","0.00"
"02:14:56","73.2","70.7","92","29.92","194","0","0","0.00","0.00"
"02:19:59","73.2","70.7","92","29.92","194","0","0","0.00","0.00"
"02:24:57","73.1","70.6","92","29.92","194","0","0","0.00","0.00"
"02:29:56","73","70.5","92","29.92","194","0","0","0.00","0.00"
"02:34:59","72.8","70.7","92.9","29.92","194","0","0","0.00","0.00"
"02:39:59","72.7","70.6","93","29.92","194","0","0","0.00","0.00"
"02:44:57","72.6","70.5","93","29.92","194","0","0","0.00","0.00"
"02:49:56","72.5","70.4","93","29.92","194","0","0","0.00","0.00"
"02:54:59","72.4","70.3","93","29.92","194","0","0","0.00","0.00"
"02:59:57","72.2","70.2","93.3","29.92","194","0","0","0.00","0.00"
"03:04:57","72.1","70.3","94","29.92","194","0","0","0.00","0.00"
"03:09:56","72","70.2","94","29.92","194","0","0","0.00","0.00"
"03:14:56","71.9","70.1","93.8","29.92","194","0","0","0.00","0.00"
"03:19:59","71.7","69.9","94","29.92","194","0","0","0.00","0.00"
"03:24:57","71.5","69.7","94","29.92","194","0","0","0.00","0.00"
"03:29:56","71.5","69.9","94.6","29.92","194","0","0","0.00","0.00"
"03:34:59","71.5","70","95","29.91","194","0","0","0.00","0.00"
"03:39:58","71.5","70","95","29.91","194","0","0","0.00","0.00"
"03:44:57","71.4","69.9","95","29.91","194","0","0","0.00","0.00"
"03:49:56","71.3","69.5","94.1","29.91","194","0","0","0.00","0.00"
"03:54:59","71.2","69.4","94","29.91","194","0","0","0.00","0.00"
"03:59:57","71","69.5","94.8","29.91","194","0","0","0.00","0.00"
"04:04:59","70.9","69.4","94.9","29.90","194","0","0","0.00","0.00"
"04:09:58","70.8","69.2","94.8","29.90","194","0","0","0.00","0.00"
"04:14:58","70.6","69.1","95","29.90","194","0","0","0.00","0.00"
"04:19:57","70.5","69","95","29.90","194","0","0","0.00","0.00"
"04:24:56","70.4","68.9","95","29.90","194","0","0","0.00","0.00"
"04:29:59","70.4","68.9","95","29.90","194","0","0","0.00","0.00"
"04:34:57","70.2","68.7","95","29.90","194","0","0","0.00","0.00"
"04:39:58","70","68.5","95","29.90","194","0","0","0.00","0.00"
"04:44:56","69.9","68.4","95","29.90","194","0","0","0.00","0.00"
"04:49:59","69.8","68.3","95","29.90","194","0","0","0.00","0.00"
"04:54:59","69.6","68.1","95","29.90","194","0","0","0.00","0.00"
"04:59:57","69.4","67.9","95","29.91","194","0","0","0.00","0.00"
"05:04:56","69.3","67.9","95.3","29.91","194","1","2.3","0.00","0.00"
"05:09:59","69.3","68.1","96","29.91","194","0","1.2","0.00","0.00"
"05:14:59","69.2","68","96","29.91","194","0","0","0.00","0.00"
"05:19:58","69.2","68","96","29.91","194","0","0","0.00","0.00"
"05:24:57","69","67.7","95.4","29.91","194","0","0","0.00","0.00"
"05:29:56","68.8","67.3","95","29.91","194","0","0","0.00","0.00"
"05:34:59","68.7","67.2","95.2","29.91","194","0","0","0.00","0.00"
"05:39:59","68.6","67.4","96","29.91","194","0","0","0.00","0.00"
"05:44:59","68.5","67.3","96","29.92","194","0","0","0.00","0.00"
"05:49:58","68.7","67.7","96.6","29.92","194","0.4","2.3","0.00","0.00"
"05:54:57","68.9","68","97","29.92","194","0","1.2","0.00","0.00"
"05:59:55","69","68.1","97","29.92","194","0","0","0.00","0.00"
"06:04:58","69.1","68.2","97","29.92","194","0","0","0.00","0.00"
"06:09:58","69.1","68.2","97","29.92","194","0.3","3.5","0.00","0.00"
"06:14:58","69","68.1","97","29.93","194","0.3","1.2","0.00","0.00"
"06:19:57","69.1","68.2","97","29.93","194","0","1.2","0.00","0.00"
"06:24:59","69.2","68.3","97","29.93","194","0","0","0.00","0.00"
"06:29:57","69.3","68.4","97","29.93","194","0","0","0.00","0.00"
"06:34:57","69.4","68.5","97","29.93","194","0","0","0.00","0.00"
"06:39:57","69.4","68.5","97","29.93","194","0","0","0.00","0.00"
"06:44:59","69.6","68.7","97","29.94","194","0","0","0.00","0.00"
"06:49:58","69.7","68.8","97","29.94","194","0","0","0.00","0.00"
"06:54:56","69.8","68.9","97","29.94","194","0.8","2.3","0.00","0.00"
"06:59:58","70","69.1","97","29.94","194","0.8","2.3","0.00","0.00"
"07:04:56","70.2","69.3","97","29.94","194","0.1","2.3","0.00","0.00"
"07:09:59","70.4","69.5","97","29.94","194","0","0","0.00","0.00"
"07:14:59","70.5","69.6","97","29.94","194","0","0","0.00","0.00"
"07:19:57","70.6","69.7","97","29.94","194","0","0","0.00","0.00"
"07:24:56","70.8","69.9","97","29.94","194","0","0","0.00","0.00"
"07:29:58","71.1","70.2","97","29.95","194","0","0","0.00","0.00"
"07:34:57","71.4","70.5","97","29.95","194","0","0","0.00","0.00"
"07:39:57","71.4","70.5","97","29.95","194","0","0","0.00","0.00"
"07:44:59","71.5","70.6","97","29.95","194","0","0","0.00","0.00"
"07:49:59","71.6","70.7","97","29.95","194","0","0","0.00","0.00"
"07:54:57","71.8","70.9","96.8","29.95","194","0","0","0.00","0.00"
"07:59:56","71.9","70.7","96","29.95","194","0","0","0.00","0.00"
"08:04:59","72.1","70.9","96","29.95","194","0","0","0.00","0.00"
"08:09:58","72.5","71.3","95.9","29.95","194","0","0","0.00","0.00"
"08:14:58","73","71.7","95.9","29.96","194","0","0","0.00","0.00"
"08:19:56","73.4","72","95.2","29.96","194","0","0","0.00","0.00"
"08:24:59","73.7","71.9","94","29.96","194","0","0","0.00","0.00"
"08:29:57","74","72.1","93.8","29.96","194","0","0","0.00","0.00"
"08:34:56","74.5","72.6","93.7","29.95","194","0","0","0.00","0.00"
"08:39:59","75","72.4","91.6","29.95","194","0","0","0.00","0.00"
"08:44:58","75.3","72.1","89.9","29.96","194","0","0","0.00","0.00"
"08:49:56","75.7","72.4","89.5","29.96","211","0","0","0.00","0.00"
"08:54:59","76.2","72.9","89.5","29.96","211","0","0","0.00","0.00"
"08:59:57","76.9","73.1","88.1","29.96","211","0","0","0.00","0.00"
"09:04:59","77.4","73.2","87","29.96","211","0","0","0.00","0.00"
"09:09:58","77.8","72.8","84.5","29.96","283","0","0","0.00","0.00"
"09:14:58","78.1","72.6","82.9","29.96","283","0","0","0.00","0.00"
"09:19:57","78.6","73.3","83.8","29.96","327","0","0","0.00","0.00"
"09:24:57","79","73.2","82.6","29.96","327","0","0","0.00","0.00"
"09:29:57","79.3","72.4","79.5","29.97","327","0","0","0.00","0.00"
"09:34:57","79.8","73.3","80.8","29.97","328","0","0","0.00","0.00"
"09:39:59","80.2","73","78.9","29.97","328","0","0","0.00","0.00"
"09:44:59","80.5","73.5","79.1","29.97","55","0","0","0.00","0.00"
"09:49:58","80.8","73.4","78.4","29.96","53","0","0","0.00","0.00"
"09:54:58","81","73.1","76.8","29.96","18","0","0","0.00","0.00"
"09:59:58","81.3","73.1","76.2","29.96","309","0","0","0.00","0.00"
"10:04:57","81.5","73.5","76.8","29.96","199","0","1.2","0.00","0.00"
"10:09:58","81.6","72.8","74.7","29.96","199","0","0","0.00","0.00"
"10:14:59","81.8","72.9","74.5","29.96","183","0","0","0.00","0.00"
"10:19:59","81.9","73.2","75.2","29.96","183","0","0","0.00","0.00"
"10:24:58","82.2","73.4","74.8","29.96","182","0","0","0.00","0.00"
"10:29:58","82.5","73.5","74.1","29.97","323","0","0","0.00","0.00"
"10:34:58","82.9","74","74.5","29.97","331","0","1","0.00","0.00"
"10:39:55","83.1","73.1","71.9","29.97","250","0.1","6","0.00","0.00"
"10:44:58","83.3","72.7","70.5","29.97","270","0.6","5.8","0.00","0.00"
"10:49:58","83.6","73.3","71.1","29.96","315","0.3","4","0.00","0.00"
"10:54:57","83.8","72.5","68.9","29.96","325","0.5","5","0.00","0.00"
"10:59:56","83.8","72.9","69.8","29.96","338","0.3","6","0.00","0.00"
"11:04:59","84","72.8","69","29.96","253","0.4","3","0.00","0.00"
"11:09:56","84.2","72.8","68.7","29.96","336","0.1","3.5","0.00","0.00"
"11:14:57","84.7","73.9","70.1","29.96","211","0.2","3.5","0.00","0.00"
"11:19:56","85.1","73.2","67.7","29.96","292","0.9","4","0.00","0.00"
"11:24:59","85.3","73.7","68.5","29.96","308","0.3","4","0.00","0.00"
"11:29:58","85.7","74.4","69.1","29.96","322","0.8","4","0.00","0.00"
"11:34:59","86.1","74.6","68.6","29.96","315","0.9","6","0.00","0.00"
"11:39:56","86.2","73.8","66.6","29.96","238","0.3","3.5","0.00","0.00"
"11:44:59","85.7","72.6","65","29.96","320","0.5","3.5","0.00","0.00"
"11:49:58","85.4","73.4","67.6","29.96","338","0.7","4","0.00","0.00"
"11:54:58","85.3","72.6","66","29.96","343","0.1","3.5","0.00","0.00"
"11:59:58","85","73.1","67.6","29.97","340","0","0","0.00","0.00"
"12:04:57","84.9","73.2","68.1","29.97","338","0","0","0.00","0.00"
"12:09:58","84.7","73.4","69.1","29.97","338","0","0","0.00","0.00"
"12:14:59","84.5","73.3","69.2","29.98","338","0","0","0.00","0.00"
"12:19:59","84.7","73.6","69.6","29.98","341","0.3","4","0.00","0.00"
"12:24:59","85.3","74.8","71.1","29.98","261","0","1.2","0.00","0.00"
"12:29:58","86","74.8","69.3","29.98","308","0.8","7","0.00","0.00"
"12:34:58","86.5","74.8","68.3","29.97","224","0.1","2.3","0.00","0.00"
"12:39:59","86.9","74.5","66.7","29.97","323","0.1","3","0.00","0.00"
"12:44:56","87.2","74.2","65.4","29.97","308","0.2","3.5","0.00","0.00"
"12:49:59","87.2","74.1","65.3","29.96","332","0.2","3.5","0.00","0.00"
"12:54:59","87.4","74.7","66.1","29.96","265","0.1","3.5","0.00","0.00"
"12:59:58","87.7","74","64","29.96","240","0.1","2.3","0.00","0.00"
"13:04:58","87.9","74.7","65.2","29.95","232","0.4","5","0.00","0.00"
"13:09:58","88.1","74.7","64.8","29.95","208","0.5","4.6","0.00","0.00"
"13:14:56","88.2","74.3","63.6","29.95","208","0.1","2.3","0.00","0.00"
"13:19:59","88.2","74.4","63.7","29.94","195","0","2.3","0.00","0.00"
"13:24:59","88.4","74.4","63.5","29.94","312","0.6","6","0.00","0.00"
"13:29:58","88.5","74.2","63","29.94","260","0.4","3.5","0.00","0.00"
"13:34:58","88.6","74","62.3","29.93","194","0.2","3.5","0.00","0.00"
"13:39:59","88.8","74.2","62.3","29.93","244","0.3","4","0.00","0.00"
"13:44:58","88.9","74.7","63.1","29.93","189","0.4","5","0.00","0.00"
"13:49:57","88.9","75","63.6","29.93","176","1","6","0.00","0.00"
"13:54:57","89.1","74.7","62.8","29.93","206","0.3","3.5","0.00","0.00"
"13:59:56","89.3","75.1","63.2","29.93","183","0.4","4","0.00","0.00"
"14:04:56","89.4","75.4","63.5","29.93","185","0.7","3.5","0.00","0.00"
"14:09:56","89.2","75","63","29.93","207","0.3","3.5","0.00","0.00"
"14:14:57","89.4","74.8","62.4","29.93","215","0","0","0.00","0.00"
"14:19:57","89.5","74.5","61.5","29.92","64","0","1.2","0.00","0.00"
"14:24:57","89.7","73.3","58.7","29.92","341","0.6","5","0.00","0.00"
"14:29:56","89.8","74.7","61.3","29.92","325","0.1","3.5","0.00","0.00"
"14:34:56","90.1","73.9","59.2","29.92","333","0.3","5","0.00","0.00"
"14:39:56","90.4","74.8","60.4","29.92","270","0.1","2.3","0.00","0.00"
"14:44:56","90.5","74.4","59.3","29.92","315","0.4","6","0.00","0.00"
"14:49:59","89.9","73.5","58.6","29.92","202","0.4","3.5","0.00","0.00"
"14:54:59","89.5","74.8","62","29.92","182","0.1","1.2","0.00","0.00"
"14:59:59","89.5","74.9","62.4","29.92","185","0","1.2","0.00","0.00"
"15:04:58","89.7","74","60.1","29.92","281","0.5","3","0.00","0.00"
"15:09:58","90","74.7","61","29.92","325","0.1","3.5","0.00","0.00"
"15:14:59","90.6","75.8","62","29.92","238","0.2","5","0.00","0.00"
"15:19:58","90.9","74.3","58.5","29.92","338","0.7","4.6","0.00","0.00"
"15:24:57","90.7","75.6","61.4","29.92","150","0","2","0.00","0.00"
"15:29:57","90.7","74.7","59.7","29.92","141","0.1","2.3","0.00","0.00"
"15:34:56","90.7","74.7","59.7","29.90","242","0","0","0.00","0.00"
"15:39:58","90.8","75.2","60.5","29.90","350","0","1.2","0.00","0.00"
"15:44:58","91.1","74.9","59.3","29.90","290","0.1","2.3","0.00","0.00"
"15:49:57","91.1","74.5","58.6","29.90","322","0.4","3.5","0.00","0.00"
"15:54:57","91","74.4","58.4","29.90","202","0.1","2","0.00","0.00"
"15:59:56","91.1","74.6","58.7","29.90","194","1.3","4","0.00","0.00"
"16:04:56","91.1","74.3","58","29.90","356","0.2","5","0.00","0.00"
"16:09:57","91.1","74.5","58.3","29.90","299","0.5","4.6","0.00","0.00"
"16:14:58","91.1","75","59.4","29.90","226","0.3","4","0.00","0.00"
"16:19:57","91.3","75.3","59.6","29.90","174","0.4","3.5","0.00","0.00"
"16:24:57","91.4","74.6","58.2","29.90","180","0.3","3.5","0.00","0.00"
"16:29:57","91.4","75.5","59.8","29.90","225","0.1","3","0.00","0.00"
"16:34:56","91.4","75","59","29.89","181","0.4","3.5","0.00","0.00"
"16:39:57","91.4","75.2","59.3","29.89","338","0","1.2","0.00","0.00"
"16:44:57","91.6","75.7","60","29.89","222","0.1","2.3","0.00","0.00"
"16:49:56","91.5","74.4","57.7","29.89","195","0.3","2.3","0.00","0.00"
"16:54:56","91.4","74.8","58.5","29.89","213","0","1","0.00","0.00"
"16:59:56","91.6","75.3","59.2","29.89","213","0","1.2","0.00","0.00"
"17:04:56","91.9","75.4","58.8","29.89","212","0","2","0.00","0.00"
"17:09:57","92.1","76.6","60.8","29.89","194","0.3","2.3","0.00","0.00"
"17:14:57","92","75.6","59.2","29.90","211","0.5","4","0.00","0.00"
"17:19:56","91.6","75.9","60.5","29.90","179","0.6","3.5","0.00","0.00"
"17:24:56","91.2","75.2","59.5","29.90","181","0.7","4","0.00","0.00"
"17:29:59","90.9","75.8","61.4","29.90","185","0.4","4","0.00","0.00"
"17:34:59","90.9","76.3","62.4","29.89","185","0","1","0.00","0.00"
"17:39:56","91","75.3","60.2","29.89","210","0.1","2.3","0.00","0.00"
"17:44:56","91","75.9","61.4","29.89","218","0.2","2.3","0.00","0.00"
"17:49:59","91.1","75.8","60.9","29.89","188","0.1","2","0.00","0.00"
"17:54:59","91","74.9","59.4","29.89","178","0.5","3.5","0.00","0.00"
"17:59:59","91","76.1","61.9","29.89","181","0","1.2","0.00","0.00"
"18:04:54","90.8","75.1","60.2","29.89","182","0.2","2.3","0.00","0.00"
"18:09:59","90.6","75.5","61.3","29.89","183","0.3","3.5","0.00","0.00"
"18:14:56","90.3","75.4","61.9","29.89","224","0.1","3.5","0.00","0.00"
"18:19:55","90.1","75.3","62","29.89","200","0","1.2","0.00","0.00"
"18:24:59","90.1","76.2","63.9","29.89","194","0","1.2","0.00","0.00"
"18:29:59","90","75.4","62.5","29.89","206","0.1","4","0.00","0.00"
"18:34:59","89.7","74.7","61.4","29.89","199","0.2","2.3","0.00","0.00"
"18:39:56","89.5","74.8","62","29.89","190","0","1.2","0.00","0.00"
"18:44:56","89.4","74.8","62.2","29.89","190","0","3","0.00","0.00"
"18:49:55","89.3","75.5","64","29.89","207","0","1.2","0.00","0.00"
"18:54:59","88.9","74.7","63","29.89","201","0","1.2","0.00","0.00"
"18:59:59","88.7","74.9","63.8","29.89","199","0.2","3.5","0.00","0.00"
"19:04:59","88.6","74.9","64","29.89","219","0","1","0.00","0.00"
"19:09:59","88.6","75.2","64.8","29.89","219","0","1.2","0.00","0.00"
"19:14:56","88.4","75.7","66.1","29.89","218","0","0","0.00","0.00"
"19:19:56","88.3","75.2","65.3","29.88","192","0","1.2","0.00","0.00"
"19:24:56","88.2","75.1","65.3","29.88","192","0","0","0.00","0.00"
"19:29:56","88.1","74.9","65.2","29.88","195","0.1","1.2","0.00","0.00"
"19:34:56","87.8","75.4","66.9","29.88","194","0","1.2","0.00","0.00"
"19:39:57","87.5","74.8","66.4","29.88","146","0.1","1.2","0.00","0.00"
"19:44:56","87.2","74.3","65.7","29.88","165","0.2","3.5","0.00","0.00"
"19:49:56","87.1","74.5","66.4","29.88","149","0","1.2","0.00","0.00"
"19:54:59","86.9","74.6","66.8","29.88","335","1.2","13","0.00","0.00"
"19:59:59","85.9","75.2","70.5","29.91","348","2.4","12.7","0.00","0.00"
"20:04:58","84.1","75.3","75","29.91","142","0.3","5","0.00","0.00"
"20:09:59","82.5","74.9","77.8","29.91","197","0.7","6","0.00","0.00"
"20:14:57","81.6","74.3","78.4","29.91","299","0.1","10","0.00","0.00"
"20:19:56","80.9","74.1","79.9","29.91","90","0.6","10.4","0.00","0.00"
"20:24:56","80.4","73.9","80.7","29.91","117","0.1","3.5","0.00","0.00"
"20:29:56","79.9","73.8","81.7","29.92","116","0.1","1.2","0.00","0.00"
"20:34:57","79.5","73.6","82.4","29.92","117","0","0","0.00","0.00"
"20:39:59","79.1","73.3","82.4","29.92","117","0","0","0.00","0.00"
"20:44:58","78.6","73.2","83.4","29.92","117","0","0","0.00","0.00"
"20:49:57","78.2","73.1","84.1","29.92","117","0","0","0.00","0.00"
"20:54:59","78","73.1","85","29.92","117","0","0","0.00","0.00"
"20:59:58","77.9","73","85","29.92","117","0","0","0.00","0.00"
"21:04:56","77.8","73.2","85.8","29.92","117","0","0","0.00","0.00"
"21:09:56","77.7","73.2","86","29.92","117","0","0","0.00","0.00"
"21:14:59","77.5","73","86","29.92","117","0","0","0.00","0.00"
"21:19:58","77.5","73.2","86.8","29.92","117","0","0","0.00","0.00"
"21:24:57","77.4","73.2","87","29.92","117","0","0","0.00","0.00"
"21:29:59","77.3","73.1","87","29.92","117","0","0","0.00","0.00"
"21:34:58","77.3","73.4","87.7","29.92","117","0","0","0.00","0.00"
"21:39:58","77.2","73","87","29.92","117","0","0","0.00","0.00"
"21:44:57","77","72.8","87","29.92","117","0","0","0.00","0.00"
"21:49:59","76.7","72.9","88","29.92","117","0","0","0.00","0.00"
"21:54:58","76.6","73","88.8","29.92","117","0","0","0.00","0.00"
